COSMOS 2436 (723)

Last updated on Mon Sep 15 2025 00:03:19 GMT+0000 (Coordinated Universal Time)

1 32395U 07065C 25257.09643292 .00000028 00000+0 00000+0 0 9994 2 32395 64.3260 201.2959 0017014 357.7105 106.9772 2.13099921137845
UTC large
Height (km)
Speed (km/s)
/
Latitude / Longitude
Inclination (degrees)
Orbital Period (minutes)
Azimuth
Elevation
Range (km)
Doppler Factor

Next 0 passes for location: London (51.5072 / 0.1276)

Sorry there are no passes over London.